Weather History for Huntington, WV

Change the Weather History Date:

Friday, October 8, 2010

  Actual Average Record
Temperature  
Mean Temperature 62 °F 59 °F  
Max Temperature 80 °F 71 °F 93 °F (2007)
Min Temperature 43 °F 47 °F 29 °F (2000)
Degree Days  
Heating Degree Days 3 7  
Month to date heating degree days 66 48  
Since 1 July heating degree days 94 106  
Cooling Degree Days 0 1  
Month to date cooling degree days 0 10  
Year to date cooling degree days 1388 1121  
Growing Degree Days 12 (Base 50)    
Moisture  
Dew Point 43 °F    
Average Humidity 62    
Maximum Humidity 100    
Minimum Humidity 23    
Precipitation  
Precipitation 0.00 in 0.09 in 1.38 in (1903)
Month to date precipitation 0.25 0.70  
Year to date precipitation 33.87 33.73  
Snow  
Snow 0.00 in - - ()
Month to date snowfall 0.0  
Since 1 September snowfall 0.0  
Snow Depth 0.00 in    
Sea Level Pressure  
Sea Level Pressure 30.09 in    
Wind  
Wind Speed 2 mph (WSW)    
Max Wind Speed 10 mph    
Max Gust Speed 17 mph    
Visibility 10 miles    
Events      
T = Trace of Precipitation, MM = Missing Value Source: NWS Daily Summary

Daily Weather History Graph

Daily Weather History Graph

Search for Another Location

Airport:

Trip Planner

Search our weather history database for the weather conditions in past years. The results will help you decide how hot, cold, wet, or windy it might be!

Date:

Astronomy

Oct. 08, 2010 Rise Set
Actual Time 7:32 AM EDT 7:02 PM EDT
Civil Twilight 7:05 AM EDT 7:28 PM EDT
Nautical Twilight 6:35 AM EDT 7:59 PM EDT
Astronomical Twilight 6:04 AM EDT 8:30 PM EDT
Moon 8:35 AM EDT (10/8) 7:18 PM EDT (10/8)
Length of Visible Light 12h 22m
Length of Day
11h 30m
New Moon, 1% of the Moon is Illuminated
Oct 8
New Moon
Oct 14
First Quarter
Oct 22
Full
Oct 30
Last Quarter
Nov 6
New

Hourly Weather History & Observations

Time (EDT) Temp. Dew Point Humidity Pressure Visibility Wind Dir Wind Speed Gust Speed Precip Events Conditions
12:51 AM 51.1 °F 46.0 °F 83% 30.08 in 10.0 mi Calm Calm - N/A   Clear
1:51 AM 48.9 °F 45.0 °F 86% 30.09 in 10.0 mi Calm Calm - N/A   Clear
2:51 AM 46.9 °F 45.0 °F 93% 30.10 in 10.0 mi Calm Calm - N/A   Clear
3:51 AM 46.0 °F 44.1 °F 93% 30.09 in 10.0 mi Calm Calm - N/A   Clear
4:51 AM 46.0 °F 44.1 °F 93% 30.09 in 10.0 mi Calm Calm - N/A   Clear
5:51 AM 45.0 °F 44.1 °F 97% 30.09 in 7.0 mi Calm Calm - N/A   Clear
6:51 AM 43.0 °F 42.1 °F 97% 30.11 in 7.0 mi Calm Calm - N/A   Clear
7:51 AM 43.0 °F 42.1 °F 97% 30.12 in 7.0 mi Calm Calm - N/A   Clear
8:51 AM 48.9 °F 46.0 °F 90% 30.14 in 10.0 mi Calm Calm - N/A   Clear
9:51 AM 54.0 °F 48.9 °F 83% 30.14 in 10.0 mi SSW 3.5 mph - N/A   Clear
10:51 AM 61.0 °F 46.9 °F 60% 30.14 in 10.0 mi Calm Calm - N/A   Clear
11:51 AM 66.9 °F 46.0 °F 47% 30.13 in 10.0 mi South 4.6 mph - N/A   Clear
12:51 PM 73.9 °F 41.0 °F 30% 30.11 in 10.0 mi WSW 6.9 mph - N/A   Clear
1:51 PM 77.0 °F 39.0 °F 25% 30.09 in 10.0 mi SW 8.1 mph - N/A   Clear
2:51 PM 77.0 °F 37.9 °F 24% 30.07 in 10.0 mi SW 4.6 mph - N/A   Clear
3:51 PM 79.0 °F 41.0 °F 26% 30.05 in 10.0 mi Calm Calm - N/A   Clear
4:51 PM 80.1 °F 39.9 °F 24% 30.04 in 10.0 mi Variable 4.6 mph - N/A   Clear
5:51 PM 77.0 °F 39.0 °F 25% 30.04 in 10.0 mi NNW 6.9 mph - N/A   Clear
6:51 PM 71.1 °F 37.9 °F 30% 30.05 in 10.0 mi NW 4.6 mph - N/A   Clear
7:51 PM 69.1 °F 39.0 °F 33% 30.05 in 10.0 mi Calm Calm - N/A   Clear
8:51 PM 62.1 °F 42.1 °F 48% 30.06 in 10.0 mi Calm Calm - N/A   Clear
9:51 PM 57.9 °F 44.1 °F 60% 30.06 in 10.0 mi Calm Calm - N/A   Clear
10:51 PM 57.0 °F 44.1 °F 62% 30.06 in 10.0 mi Calm Calm - N/A   Clear
11:51 PM 54.0 °F 45.0 °F 72% 30.06 in 10.0 mi Calm Calm - N/A   Clear